Time,TemperatureF,DewpointF,PressureIn,WindDirection,WindDirectionDegrees,WindSpeedMPH,WindSpeedGustMPH,Humidity,HourlyPrecipIn,Conditions,Clouds,dailyrainin,SolarRadiationWatts/m^2,SoftwareType,DateUTC
2013-05-11 00:00:00,69.5,61.2,30.09,NNE,27,8.0,13.0,75,0.00,CLR,,0.00,0.0,WeatherDisplay:10.37,2013-05-11 05:00:00,
2013-05-11 00:05:00,69.4,61.5,30.09,NNE,23,7.0,10.0,76,0.00,CLR,,0.00,0.0,WeatherDisplay:10.37,2013-05-11 05:05:00,
2013-05-11 00:10:00,69.3,61.4,30.09,NNE,16,7.0,11.0,76,0.00,CLR,,0.00,0.0,WeatherDisplay:10.37,2013-05-11 05:10:00,
2013-05-11 00:15:00,69.1,61.2,30.09,NNE,14,7.0,12.0,76,0.00,CLR,,0.00,0.0,WeatherDisplay:10.37,2013-05-11 05:15:00,
2013-05-11 00:20:00,68.9,61.0,30.10,NNE,14,7.0,12.0,76,0.00,CLR,,0.00,0.0,WeatherDisplay:10.37,2013-05-11 05:20:00,
2013-05-11 00:25:00,68.8,61.3,30.10,NNE,16,7.0,11.0,77,0.00,CLR,,0.00,0.0,WeatherDisplay:10.37,2013-05-11 05:25:00,
2013-05-11 00:30:00,68.6,61.1,30.10,North,8,6.0,8.0,77,0.00,CLR,,0.00,0.0,WeatherDisplay:10.37,2013-05-11 05:30:00,
2013-05-11 00:35:00,68.2,61.1,30.09,North,356,6.0,8.0,78,0.00,CLR,,0.00,0.0,WeatherDisplay:10.37,2013-05-11 05:35:00,
2013-05-11 00:40:00,67.9,61.1,30.09,North,3,7.0,10.0,79,0.00,CLR,,0.00,0.0,WeatherDisplay:10.37,2013-05-11 05:40:00,
2013-05-11 00:45:00,67.7,61.0,30.08,NNE,14,6.0,10.0,79,0.00,CLR,,0.00,0.0,WeatherDisplay:10.37,2013-05-11 05:45:00,
2013-05-11 00:50:00,67.6,61.2,30.08,NNE,19,7.0,12.0,80,0.00,CLR,,0.00,0.0,WeatherDisplay:10.37,2013-05-11 05:50:00,
2013-05-11 00:55:00,67.4,61.0,30.09,NNE,12,7.0,10.0,80,0.00,CLR,,0.00,0.0,WeatherDisplay:10.37,2013-05-11 05:55:00,
2013-05-11 01:00:00,67.2,61.1,30.08,North,4,8.0,12.0,81,0.00,CLR,,0.00,0.0,WeatherDisplay:10.37,2013-05-11 06:00:00,
2013-05-11 01:05:00,67.0,61.0,30.08,North,2,6.0,12.0,81,0.00,CLR,,0.00,0.0,WeatherDisplay:10.37,2013-05-11 06:05:00,
2013-05-11 01:10:00,66.8,61.1,30.08,North,3,9.0,13.0,82,0.00,CLR,,0.00,0.0,WeatherDisplay:10.37,2013-05-11 06:10:00,
2013-05-11 01:15:00,66.7,61.0,30.08,North,9,7.0,13.0,82,0.00,CLR,,0.00,0.0,WeatherDisplay:10.37,2013-05-11 06:15:00,
2013-05-11 01:20:00,66.6,60.9,30.07,NNE,16,9.0,12.0,82,0.00,CLR,,0.00,0.0,WeatherDisplay:10.37,2013-05-11 06:20:00,
2013-05-11 01:25:00,66.6,60.9,30.07,NNE,14,8.0,13.0,82,0.00,CLR,,0.00,0.0,WeatherDisplay:10.37,2013-05-11 06:25:00,
2013-05-11 01:30:00,66.5,61.2,30.07,North,9,8.0,13.0,83,0.00,CLR,,0.00,0.0,WeatherDisplay:10.37,2013-05-11 06:30:00,
2013-05-11 01:35:00,66.4,61.1,30.07,North,8,8.0,12.0,83,0.00,CLR,,0.00,0.0,WeatherDisplay:10.37,2013-05-11 06:35:00,
2013-05-11 01:40:00,66.2,60.9,30.07,North,2,6.0,13.0,83,0.00,CLR,,0.00,0.0,WeatherDisplay:10.37,2013-05-11 06:40:00,
2013-05-11 01:45:00,66.1,60.8,30.07,North,354,7.0,10.0,83,0.00,CLR,,0.00,0.0,WeatherDisplay:10.37,2013-05-11 06:45:00,
2013-05-11 01:50:00,66.1,60.8,30.07,North,352,7.0,13.0,83,0.00,CLR,,0.00,0.0,WeatherDisplay:10.37,2013-05-11 06:50:00,
2013-05-11 01:55:00,66.2,60.5,30.07,North,353,8.0,12.0,82,0.00,CLR,,0.00,0.0,WeatherDisplay:10.37,2013-05-11 06:55:00,
2013-05-11 02:00:00,66.3,60.6,30.07,North,352,7.0,12.0,82,0.00,CLR,,0.00,0.0,WeatherDisplay:10.37,2013-05-11 07:00:00,
2013-05-11 02:05:00,66.4,60.7,30.08,NNW,348,8.0,13.0,82,0.00,CLR,,0.00,0.0,WeatherDisplay:10.37,2013-05-11 07:05:00,
2013-05-11 02:10:00,66.5,60.5,30.07,North,352,7.0,14.0,81,0.00,CLR,,0.00,0.0,WeatherDisplay:10.37,2013-05-11 07:10:00,
2013-05-11 02:15:00,66.5,60.5,30.08,North,359,7.0,12.0,81,0.00,CLR,,0.00,0.0,WeatherDisplay:10.37,2013-05-11 07:15:00,
2013-05-11 02:20:00,66.5,60.5,30.08,North,356,6.0,14.0,81,0.00,CLR,,0.00,0.0,WeatherDisplay:10.37,2013-05-11 07:20:00,
2013-05-11 02:25:00,66.4,60.4,30.08,North,359,6.0,10.0,81,0.00,CLR,,0.00,0.0,WeatherDisplay:10.37,2013-05-11 07:25:00,
2013-05-11 02:30:00,66.4,60.4,30.08,North,2,9.0,12.0,81,0.00,CLR,,0.00,0.0,WeatherDisplay:10.37,2013-05-11 07:30:00,
2013-05-11 02:35:00,66.3,60.3,30.08,North,4,8.0,12.0,81,0.00,CLR,,0.00,0.0,WeatherDisplay:10.37,2013-05-11 07:35:00,
2013-05-11 02:40:00,66.3,60.3,30.08,North,10,8.0,13.0,81,0.00,CLR,,0.00,1.0,WeatherDisplay:10.37,2013-05-11 07:40:00,
2013-05-11 02:45:00,66.2,60.2,30.08,North,9,7.0,11.0,81,0.00,CLR,,0.00,0.0,WeatherDisplay:10.37,2013-05-11 07:45:00,
2013-05-11 02:50:00,66.0,60.3,30.09,North,5,5.0,10.0,82,0.00,CLR,,0.00,1.0,WeatherDisplay:10.37,2013-05-11 07:50:00,
2013-05-11 02:55:00,65.8,60.2,30.09,North,5,7.0,12.0,82,0.00,CLR,,0.00,0.0,WeatherDisplay:10.37,2013-05-11 07:55:00,
2013-05-11 03:00:00,65.8,60.2,30.09,North,8,6.0,10.0,82,0.00,CLR,,0.00,0.0,WeatherDisplay:10.37,2013-05-11 08:00:00,
2013-05-11 03:05:00,65.7,60.1,30.10,North,11,6.0,9.0,82,0.00,CLR,,0.00,0.0,WeatherDisplay:10.37,2013-05-11 08:05:00,
2013-05-11 03:10:00,65.6,60.0,30.10,NNE,14,8.0,14.0,82,0.00,CLR,,0.00,0.0,WeatherDisplay:10.37,2013-05-11 08:10:00,
2013-05-11 03:15:00,65.6,60.0,30.10,NNE,14,7.0,13.0,82,0.00,CLR,,0.00,0.0,WeatherDisplay:10.37,2013-05-11 08:15:00,
2013-05-11 03:20:00,65.6,59.9,30.11,North,9,8.0,13.0,82,0.00,CLR,,0.00,0.0,WeatherDisplay:10.37,2013-05-11 08:20:00,
2013-05-11 03:25:00,65.5,59.9,30.10,North,11,9.0,13.0,82,0.00,CLR,,0.00,0.0,WeatherDisplay:10.37,2013-05-11 08:25:00,
2013-05-11 03:30:00,65.5,59.9,30.10,NNE,18,8.0,15.0,82,0.00,CLR,,0.00,0.0,WeatherDisplay:10.37,2013-05-11 08:30:00,
2013-05-11 03:35:00,65.4,59.8,30.10,NNE,17,9.0,14.0,82,0.00,CLR,,0.00,0.0,WeatherDisplay:10.37,2013-05-11 08:35:00,
2013-05-11 03:40:00,65.3,60.0,30.10,NNE,20,9.0,15.0,83,0.00,CLR,,0.00,1.0,WeatherDisplay:10.37,2013-05-11 08:40:00,
2013-05-11 03:45:00,65.2,59.9,30.11,NNE,23,7.0,15.0,83,0.00,CLR,,0.00,0.0,WeatherDisplay:10.37,2013-05-11 08:45:00,
2013-05-11 03:50:00,65.1,59.8,30.11,NNE,25,10.0,14.0,83,0.00,CLR,,0.00,0.0,WeatherDisplay:10.37,2013-05-11 08:50:00,
2013-05-11 03:55:00,64.9,59.6,30.11,NNE,25,10.0,15.0,83,0.00,CLR,,0.00,0.0,WeatherDisplay:10.37,2013-05-11 08:55:00,
2013-05-11 04:00:00,64.8,59.8,30.11,NNE,23,12.0,15.0,84,0.00,CLR,,0.00,0.0,WeatherDisplay:10.37,2013-05-11 09:00:00,
2013-05-11 04:05:00,64.6,59.7,30.11,NNE,25,10.0,14.0,84,0.00,CLR,,0.00,0.0,WeatherDisplay:10.37,2013-05-11 09:05:00,
2013-05-11 04:10:00,64.4,59.8,30.11,NNE,26,10.0,14.0,85,0.00,CLR,,0.00,0.0,WeatherDisplay:10.37,2013-05-11 09:10:00,
2013-05-11 04:15:00,64.3,59.7,30.11,NNE,23,9.0,16.0,85,0.00,CLR,,0.00,0.0,WeatherDisplay:10.37,2013-05-11 09:15:00,
2013-05-11 04:20:00,64.1,59.8,30.11,NNE,22,9.0,13.0,86,0.00,CLR,,0.00,0.0,WeatherDisplay:10.37,2013-05-11 09:20:00,
2013-05-11 04:25:00,64.0,59.7,30.11,NNE,25,8.0,15.0,86,0.00,CLR,,0.00,0.0,WeatherDisplay:10.37,2013-05-11 09:25:00,
2013-05-11 04:30:00,63.8,59.9,30.11,NNE,17,17.3,17.3,87,0.00,CLR,,0.00,1.0,WeatherDisplay:10.37,2013-05-11 09:30:00,
2013-05-11 04:35:00,63.7,59.8,30.11,NNE,22,10.0,14.0,87,0.00,CLR,,0.00,0.0,WeatherDisplay:10.37,2013-05-11 09:35:00,
2013-05-11 04:40:00,63.6,59.7,30.11,NNE,22,9.0,15.0,87,0.00,CLR,,0.00,0.0,WeatherDisplay:10.37,2013-05-11 09:40:00,
2013-05-11 04:45:00,63.6,59.6,30.11,NNE,23,8.0,14.0,87,0.00,CLR,,0.00,0.0,WeatherDisplay:10.37,2013-05-11 09:45:00,
2013-05-11 04:50:00,63.5,59.9,30.12,NNE,28,9.0,15.0,88,0.00,CLR,,0.00,0.0,WeatherDisplay:10.37,2013-05-11 09:50:00,
2013-05-11 04:55:00,63.4,59.8,30.12,NNE,30,8.0,13.0,88,0.00,CLR,,0.00,0.0,WeatherDisplay:10.37,2013-05-11 09:55:00,
2013-05-11 05:00:00,63.3,59.7,30.11,NNE,27,7.0,13.0,88,0.00,CLR,,0.00,0.0,WeatherDisplay:10.37,2013-05-11 10:00:00,
2013-05-11 05:05:00,63.2,59.6,30.11,NNE,25,10.0,15.0,88,0.00,CLR,,0.00,0.0,WeatherDisplay:10.37,2013-05-11 10:05:00,
2013-05-11 05:10:00,63.0,59.4,30.11,NNE,24,9.0,12.0,88,0.00,CLR,,0.00,0.0,WeatherDisplay:10.37,2013-05-11 10:10:00,
2013-05-11 05:15:00,62.8,59.5,30.11,NNE,27,8.0,14.0,89,0.00,CLR,,0.00,0.0,WeatherDisplay:10.37,2013-05-11 10:15:00,
2013-05-11 05:20:00,62.7,59.4,30.11,NNE,27,7.0,12.0,89,0.00,CLR,,0.00,0.0,WeatherDisplay:10.37,2013-05-11 10:20:00,
2013-05-11 05:25:00,62.5,59.2,30.11,NNE,29,8.0,12.0,89,0.00,CLR,,0.00,0.0,WeatherDisplay:10.37,2013-05-11 10:25:00,
2013-05-11 05:30:00,62.3,59.3,30.11,NNE,33,8.0,12.0,90,0.00,CLR,,0.00,0.0,WeatherDisplay:10.37,2013-05-11 10:30:00,
2013-05-11 05:35:00,62.2,59.2,30.11,NNE,32,7.0,10.0,90,0.00,CLR,,0.00,0.0,WeatherDisplay:10.37,2013-05-11 10:35:00,
2013-05-11 05:40:00,62.1,59.4,30.12,NNE,30,6.0,10.0,91,0.00,CLR,,0.00,0.0,WeatherDisplay:10.37,2013-05-11 10:40:00,
2013-05-11 05:45:00,62.0,59.3,30.12,NNE,27,5.0,8.0,91,0.00,CLR,,0.00,0.0,WeatherDisplay:10.37,2013-05-11 10:45:00,
2013-05-11 05:50:00,61.9,59.2,30.12,NNE,28,2.0,6.0,91,0.00,CLR,,0.00,0.0,WeatherDisplay:10.37,2013-05-11 10:50:00,
2013-05-11 05:55:00,61.7,59.1,30.13,NNE,30,3.0,6.0,91,0.00,CLR,,0.00,0.0,WeatherDisplay:10.37,2013-05-11 10:55:00,
2013-05-11 06:00:00,61.6,59.3,30.13,NNE,26,2.0,5.0,92,0.00,OVC,,0.00,2.0,WeatherDisplay:10.37,2013-05-11 11:00:00,
2013-05-11 06:05:00,61.5,59.2,30.14,North,8,2.0,4.0,92,0.00,OVC,,0.00,2.0,WeatherDisplay:10.37,2013-05-11 11:05:00,
2013-05-11 06:10:00,61.4,59.0,30.15,NNW,338,2.0,3.0,92,0.00,OVC,,0.00,2.0,WeatherDisplay:10.37,2013-05-11 11:10:00,
2013-05-11 06:15:00,61.2,58.8,30.15,NW,320,2.0,4.0,92,0.00,OVC,,0.00,2.0,WeatherDisplay:10.37,2013-05-11 11:15:00,
2013-05-11 06:20:00,61.0,58.7,30.15,NNW,328,3.5,3.5,92,0.00,OVC,,0.00,3.0,WeatherDisplay:10.37,2013-05-11 11:20:00,
2013-05-11 06:25:00,60.9,58.9,30.15,NNW,329,4.6,4.6,93,0.00,OVC,,0.00,4.0,WeatherDisplay:10.37,2013-05-11 11:25:00,
2013-05-11 06:30:00,60.7,58.6,30.15,NNW,347,5.0,7.0,93,0.00,OVC,,0.00,8.0,WeatherDisplay:10.37,2013-05-11 11:30:00,
2013-05-11 06:35:00,60.4,58.6,30.15,North,354,7.0,9.0,94,0.00,OVC,,0.00,11.0,WeatherDisplay:10.37,2013-05-11 11:35:00,
2013-05-11 06:40:00,60.1,58.7,30.15,North,354,7.0,10.0,95,0.00,OVC,,0.00,19.0,WeatherDisplay:10.37,2013-05-11 11:40:00,
2013-05-11 06:45:00,60.0,58.6,30.16,NNW,348,6.0,8.0,95,0.00,OVC,,0.00,52.0,WeatherDisplay:10.37,2013-05-11 11:45:00,
2013-05-11 06:50:00,60.0,58.6,30.16,NNW,347,6.0,8.0,95,0.00,OVC,,0.00,87.0,WeatherDisplay:10.37,2013-05-11 11:50:00,
2013-05-11 06:55:00,60.0,58.9,30.16,North,351,6.0,8.0,96,0.00,OVC,,0.00,112.0,WeatherDisplay:10.37,2013-05-11 11:55:00,
2013-05-11 07:00:00,60.0,58.9,30.16,North,1,6.0,10.0,96,0.00,OVC,,0.00,137.0,WeatherDisplay:10.37,2013-05-11 12:00:00,
2013-05-11 07:05:00,60.0,58.9,30.16,North,8,8.0,13.0,96,0.00,OVC,,0.00,159.0,WeatherDisplay:10.37,2013-05-11 12:05:00,
2013-05-11 07:10:00,60.1,58.7,30.16,North,8,8.0,13.0,95,0.00,OVC,,0.00,173.0,WeatherDisplay:10.37,2013-05-11 12:10:00,
2013-05-11 07:15:00,60.3,58.9,30.16,North,4,7.0,12.0,95,0.00,OVC,,0.00,215.0,WeatherDisplay:10.37,2013-05-11 12:15:00,
2013-05-11 07:20:00,60.5,58.8,30.16,North,359,6.0,10.0,94,0.00,OVC,,0.00,241.0,WeatherDisplay:10.37,2013-05-11 12:20:00,
2013-05-11 07:25:00,60.8,59.0,30.16,North,360,7.0,13.0,94,0.00,OVC,,0.00,265.0,WeatherDisplay:10.37,2013-05-11 12:25:00,
2013-05-11 07:30:00,61.1,59.0,30.16,North,357,7.0,12.0,93,0.00,OVC,,0.00,247.0,WeatherDisplay:10.37,2013-05-11 12:30:00,
2013-05-11 07:35:00,61.3,59.3,30.16,North,356,7.0,14.0,93,0.00,OVC,,0.00,205.0,WeatherDisplay:10.37,2013-05-11 12:35:00,
2013-05-11 07:40:00,61.5,59.1,30.16,North,359,8.0,12.0,92,0.00,OVC,,0.00,293.0,WeatherDisplay:10.37,2013-05-11 12:40:00,
2013-05-11 07:45:00,61.7,59.1,30.16,North,2,9.0,13.0,91,0.00,OVC,,0.00,361.0,WeatherDisplay:10.37,2013-05-11 12:45:00,
2013-05-11 07:50:00,62.0,59.0,30.16,North,3,8.0,12.0,90,0.00,OVC,,0.00,326.0,WeatherDisplay:10.37,2013-05-11 12:50:00,
2013-05-11 07:55:00,62.3,59.0,30.16,North,8,9.0,13.0,89,0.00,OVC,,0.00,419.0,WeatherDisplay:10.37,2013-05-11 12:55:00,
2013-05-11 08:00:00,62.6,59.0,30.16,North,6,9.0,13.0,88,0.00,OVC,,0.00,402.0,WeatherDisplay:10.37,2013-05-11 13:00:00,
2013-05-11 08:05:00,62.8,58.9,30.16,North,7,7.0,11.0,87,0.00,OVC,,0.00,113.0,WeatherDisplay:10.37,2013-05-11 13:05:00,
2013-05-11 08:10:00,62.8,58.5,30.17,North,8,6.0,13.0,86,0.00,OVC,,0.00,402.0,WeatherDisplay:10.37,2013-05-11 13:10:00,
2013-05-11 08:15:00,62.9,58.6,30.17,North,5,5.0,8.0,86,0.00,OVC,,0.00,213.0,WeatherDisplay:10.37,2013-05-11 13:15:00,
2013-05-11 08:20:00,63.0,58.8,30.17,North,5,5.0,10.0,86,0.00,OVC,,0.00,457.0,WeatherDisplay:10.37,2013-05-11 13:20:00,
2013-05-11 08:25:00,63.3,59.1,30.17,NNE,12,9.0,13.0,86,0.00,OVC,,0.00,480.0,WeatherDisplay:10.37,2013-05-11 13:25:00,
2013-05-11 08:30:00,63.6,58.7,30.17,North,10,9.0,15.0,84,0.00,OVC,,0.00,496.0,WeatherDisplay:10.37,2013-05-11 13:30:00,
2013-05-11 08:35:00,64.0,58.4,30.17,NNE,13,9.0,14.0,82,0.00,OVC,,0.00,177.0,WeatherDisplay:10.37,2013-05-11 13:35:00,
2013-05-11 08:40:00,64.3,58.3,30.17,NNE,13,12.7,12.7,81,0.00,OVC,,0.00,505.0,WeatherDisplay:10.37,2013-05-11 13:40:00,
2013-05-11 08:45:00,64.5,57.9,30.17,NNE,22,10.0,17.0,79,0.00,OVC,,0.00,545.0,WeatherDisplay:10.37,2013-05-11 13:45:00,
2013-05-11 08:50:00,64.8,57.4,30.17,NNE,23,14.0,19.0,77,0.00,OVC,,0.00,559.0,WeatherDisplay:10.37,2013-05-11 13:50:00,
2013-05-11 08:55:00,65.3,57.5,30.17,NNE,27,12.7,12.7,76,0.00,OVC,,0.00,575.0,WeatherDisplay:10.37,2013-05-11 13:55:00,
2013-05-11 09:00:00,65.5,57.4,30.17,NNE,19,12.0,15.0,75,0.00,OVC,,0.00,589.0,WeatherDisplay:10.37,2013-05-11 14:00:00,
2013-05-11 09:05:00,65.8,57.3,30.17,NNE,17,7.0,15.0,74,0.00,OVC,,0.00,604.0,WeatherDisplay:10.37,2013-05-11 14:05:00,
2013-05-11 09:10:00,66.3,57.3,30.17,NNE,20,10.0,14.0,73,0.00,OVC,,0.00,620.0,WeatherDisplay:10.37,2013-05-11 14:10:00,
2013-05-11 09:15:00,66.5,56.8,30.17,NNE,16,9.0,15.0,71,0.00,OVC,,0.00,634.0,WeatherDisplay:10.37,2013-05-11 14:15:00,
2013-05-11 09:20:00,66.7,56.6,30.17,NNE,21,13.0,15.0,70,0.00,OVC,,0.00,650.0,WeatherDisplay:10.37,2013-05-11 14:20:00,
2013-05-11 09:25:00,67.1,56.6,30.17,NNE,20,8.0,16.0,69,0.00,OVC,,0.00,666.0,WeatherDisplay:10.37,2013-05-11 14:25:00,
2013-05-11 09:30:00,67.5,56.1,30.17,NNE,17,9.0,13.0,67,0.00,OVC,,0.00,684.0,WeatherDisplay:10.37,2013-05-11 14:30:00,
2013-05-11 09:35:00,67.8,56.0,30.17,NNE,12,9.0,15.0,66,0.00,OVC,,0.00,700.0,WeatherDisplay:10.37,2013-05-11 14:35:00,
2013-05-11 09:40:00,68.0,55.4,30.17,NNE,19,15.0,20.0,64,0.00,OVC,,0.00,714.0,WeatherDisplay:10.37,2013-05-11 14:40:00,
2013-05-11 09:45:00,68.3,56.0,30.17,NNE,17,10.0,19.0,65,0.00,OVC,,0.00,730.0,WeatherDisplay:10.37,2013-05-11 14:45:00,
2013-05-11 09:50:00,68.5,55.4,30.17,NE,35,16.1,16.1,63,0.00,OVC,,0.00,744.0,WeatherDisplay:10.37,2013-05-11 14:50:00,
2013-05-11 09:55:00,68.6,55.5,30.17,NNE,25,13.0,21.0,63,0.00,OVC,,0.00,761.0,WeatherDisplay:10.37,2013-05-11 14:55:00,
2013-05-11 10:00:00,68.6,55.1,30.17,NNE,27,16.0,23.0,62,0.00,OVC,,0.00,774.0,WeatherDisplay:10.37,2013-05-11 15:00:00,
2013-05-11 10:05:00,69.0,55.9,30.17,NNE,30,13.0,22.0,63,0.00,OVC,,0.00,787.0,WeatherDisplay:10.37,2013-05-11 15:05:00,
2013-05-11 10:10:00,69.7,56.9,30.17,NE,45,14.0,19.0,64,0.00,OVC,,0.00,801.0,WeatherDisplay:10.37,2013-05-11 15:10:00,
2013-05-11 10:15:00,69.6,56.0,30.17,NE,43,16.0,21.0,62,0.00,OVC,,0.00,816.0,WeatherDisplay:10.37,2013-05-11 15:15:00,
2013-05-11 10:20:00,69.7,56.1,30.17,NE,35,20.0,24.0,62,0.00,OVC,,0.00,827.0,WeatherDisplay:10.37,2013-05-11 15:20:00,
2013-05-11 10:25:00,69.8,56.2,30.17,NE,34,13.0,24.0,62,0.00,OVC,,0.00,842.0,WeatherDisplay:10.37,2013-05-11 15:25:00,
2013-05-11 10:30:00,70.1,56.5,30.17,NNE,33,16.0,23.0,62,0.00,OVC,,0.00,853.0,WeatherDisplay:10.37,2013-05-11 15:30:00,
2013-05-11 10:35:00,70.3,56.2,30.17,NNE,31,15.0,28.0,61,0.00,OVC,,0.00,864.0,WeatherDisplay:10.37,2013-05-11 15:35:00,
2013-05-11 10:40:00,70.4,56.8,30.17,NNE,27,16.0,22.0,62,0.00,OVC,,0.00,868.0,WeatherDisplay:10.37,2013-05-11 15:40:00,
2013-05-11 10:45:00,70.4,56.3,30.17,NNE,30,16.0,23.0,61,0.00,OVC,,0.00,915.0,WeatherDisplay:10.37,2013-05-11 15:45:00,
2013-05-11 10:50:00,70.8,56.2,30.17,NE,35,20.0,25.0,60,0.00,OVC,,0.00,947.0,WeatherDisplay:10.37,2013-05-11 15:50:00,
2013-05-11 10:55:00,71.3,56.7,30.17,NE,35,12.0,25.0,60,0.00,OVC,,0.00,253.0,WeatherDisplay:10.37,2013-05-11 15:55:00,
2013-05-11 11:00:00,71.2,55.6,30.17,NNE,25,17.0,25.0,58,0.00,OVC,,0.00,1006.0,WeatherDisplay:10.37,2013-05-11 16:00:00,
2013-05-11 11:05:00,71.0,54.5,30.17,NNE,14,14.0,25.0,56,0.00,OVC,,0.00,451.0,WeatherDisplay:10.37,2013-05-11 16:05:00,
2013-05-11 11:10:00,71.4,54.9,30.17,NNE,21,17.0,25.0,56,0.00,OVC,,0.00,963.0,WeatherDisplay:10.37,2013-05-11 16:10:00,
2013-05-11 11:15:00,72.2,55.6,30.17,NE,38,15.0,24.0,56,0.00,OVC,,0.00,972.0,WeatherDisplay:10.37,2013-05-11 16:15:00,
2013-05-11 16:07:00,78.8,52.4,30.15,ENE,60,12.7,12.7,40,0.00,CLR,,0.00,764.0,WeatherDisplay:10.37,2013-05-11 21:07:00,
2013-05-11 16:13:00,78.7,52.3,30.15,NNE,28,18.4,18.4,40,0.00,CLR,,0.00,746.0,WeatherDisplay:10.37,2013-05-11 21:13:00,
2013-05-11 16:18:00,78.8,52.4,30.14,NNE,29,20.7,20.7,40,0.00,FEW,,0.00,738.0,WeatherDisplay:10.37,2013-05-11 21:18:00,
2013-05-11 16:23:00,78.5,50.8,30.07,NE,37,21.9,21.9,38,0.00,FEW,,0.00,728.0,WeatherDisplay:10.37,2013-05-11 21:23:00,
2013-05-11 16:28:00,78.4,50.7,30.07,NNE,33,21.6,21.6,38,0.00,FEW,,0.00,713.0,WeatherDisplay:10.37,2013-05-11 21:28:00,
2013-05-11 16:33:00,78.5,50.8,30.07,NNE,18,19.6,19.6,38,0.00,FEW,,0.00,699.0,WeatherDisplay:10.37,2013-05-11 21:33:00,
2013-05-11 16:38:00,78.7,51.0,30.07,North,9,20.7,20.7,38,0.00,FEW,,0.00,700.0,WeatherDisplay:10.37,2013-05-11 21:38:00,
2013-05-11 16:43:00,78.9,51.1,30.07,North,355,21.9,21.9,38,0.00,SCT,,0.00,668.0,WeatherDisplay:10.37,2013-05-11 21:43:00,
2013-05-11 16:48:00,78.9,51.1,30.06,NE,36,16.1,16.1,38,0.00,SCT,,0.00,657.0,WeatherDisplay:10.37,2013-05-11 21:48:00,
2013-05-11 16:54:00,79.3,52.9,30.06,NE,51,15.0,15.0,40,0.00,SCT,,0.00,641.0,WeatherDisplay:10.37,2013-05-11 21:54:00,
2013-05-11 16:59:00,79.3,52.2,30.13,ENE,64,23.0,23.0,39,0.00,SCT,,0.00,649.0,WeatherDisplay:10.37,2013-05-11 21:59:00,
2013-05-11 17:04:00,79.0,51.9,30.06,NE,36,24.3,24.3,39,0.00,SCT,,0.00,609.0,WeatherDisplay:10.37,2013-05-11 22:04:00,
2013-05-11 17:09:00,78.8,51.7,30.06,North,350,18.4,18.4,39,0.00,SCT,,0.00,592.0,WeatherDisplay:10.37,2013-05-11 22:09:00,
2013-05-11 17:14:00,78.8,51.7,30.06,NE,38,17.3,17.3,39,0.00,SCT,,0.00,577.0,WeatherDisplay:10.37,2013-05-11 22:14:00,
2013-05-11 17:20:00,78.9,51.8,30.06,East,97,21.9,21.9,39,0.00,SCT,,0.00,559.0,WeatherDisplay:10.37,2013-05-11 22:20:00,
2013-05-11 17:25:00,78.9,51.8,30.06,NE,44,18.4,18.4,39,0.00,BKN,,0.00,539.0,WeatherDisplay:10.37,2013-05-11 22:25:00,
2013-05-11 17:30:00,79.0,51.2,30.06,NNE,13,18.4,18.4,38,0.00,BKN,,0.00,525.0,WeatherDisplay:10.37,2013-05-11 22:30:00,
2013-05-11 17:35:00,78.9,51.9,30.07,NE,37,13.0,22.0,39,0.00,BKN,,0.00,507.0,WeatherDisplay:10.37,2013-05-11 22:35:00,
2013-05-11 17:40:00,79.1,52.0,30.06,NNE,30,13.8,13.8,39,0.00,BKN,,0.00,498.0,WeatherDisplay:10.37,2013-05-11 22:40:00,
2013-05-11 17:45:00,79.0,50.5,30.06,NE,42,15.0,15.0,37,0.00,BKN,,0.00,483.0,WeatherDisplay:10.37,2013-05-11 22:45:00,
2013-05-11 17:50:00,78.9,50.4,30.07,NNE,22,14.0,21.0,37,0.00,BKN,,0.00,466.0,WeatherDisplay:10.37,2013-05-11 22:50:00,
2013-05-11 17:55:00,78.8,51.1,30.07,NNE,18,10.0,18.0,38,0.00,BKN,,0.00,451.0,WeatherDisplay:10.37,2013-05-11 22:55:00,
2013-05-11 18:00:00,79.0,51.9,30.08,NNE,18,9.0,16.0,39,0.00,BKN,,0.00,434.0,WeatherDisplay:10.37,2013-05-11 23:00:00,
2013-05-11 18:05:00,79.0,51.9,30.08,NNE,31,5.0,20.0,39,0.00,OVC,,0.00,418.0,WeatherDisplay:10.37,2013-05-11 23:05:00,
2013-05-11 18:10:00,79.0,50.5,30.09,NNE,30,16.0,21.0,37,0.00,OVC,,0.00,404.0,WeatherDisplay:10.37,2013-05-11 23:10:00,
2013-05-11 18:15:00,78.8,51.0,30.09,NNE,31,12.0,18.0,38,0.00,OVC,,0.00,391.0,WeatherDisplay:10.37,2013-05-11 23:15:00,
2013-05-11 18:20:00,78.6,50.2,30.09,NNE,29,14.0,21.0,37,0.00,OVC,,0.00,371.0,WeatherDisplay:10.37,2013-05-11 23:20:00,
2013-05-11 18:25:00,78.6,50.9,30.09,NNE,21,10.0,16.0,38,0.00,OVC,,0.00,360.0,WeatherDisplay:10.37,2013-05-11 23:25:00,
2013-05-11 18:30:00,78.6,50.9,30.08,NNE,23,9.0,15.0,38,0.00,OVC,,0.00,346.0,WeatherDisplay:10.37,2013-05-11 23:30:00,
2013-05-11 18:35:00,78.6,50.1,30.10,North,7,19.6,19.6,37,0.00,OVC,,0.00,329.0,WeatherDisplay:10.37,2013-05-11 23:35:00,
2013-05-11 18:40:00,78.4,50.0,30.11,NNE,25,23.0,23.0,37,0.00,OVC,,0.00,311.0,WeatherDisplay:10.37,2013-05-11 23:40:00,
2013-05-11 18:45:00,78.2,49.8,30.08,NE,39,17.3,17.3,37,0.00,OVC,,0.00,296.0,WeatherDisplay:10.37,2013-05-11 23:45:00,
2013-05-11 18:51:00,78.3,49.9,30.07,NNE,22,17.3,17.3,37,0.00,OVC,,0.00,282.0,WeatherDisplay:10.37,2013-05-11 23:51:00,
2013-05-11 18:56:00,78.2,49.8,30.06,NNE,24,15.0,15.0,37,0.00,OVC,,0.00,265.0,WeatherDisplay:10.37,2013-05-11 23:56:00,
2013-05-11 19:01:00,78.0,49.6,30.04,NNE,12,16.1,16.1,37,0.00,OVC,,0.00,250.0,WeatherDisplay:10.37,2013-05-12 00:01:00,
2013-05-11 19:06:00,77.9,49.5,30.04,NE,40,15.0,15.0,37,0.00,OVC,,0.00,233.0,WeatherDisplay:10.37,2013-05-12 00:06:00,
2013-05-11 19:11:00,77.7,49.3,30.04,NE,42,16.1,16.1,37,0.00,OVC,,0.00,215.0,WeatherDisplay:10.37,2013-05-12 00:11:00,
2013-05-11 19:16:00,77.5,49.9,30.11,NNE,25,11.5,11.5,38,0.00,OVC,,0.00,196.0,WeatherDisplay:10.37,2013-05-12 00:16:00,
2013-05-11 19:22:00,77.4,49.8,30.12,NNE,33,10.4,10.4,38,0.00,OVC,,0.00,179.0,WeatherDisplay:10.37,2013-05-12 00:22:00,
2013-05-11 19:27:00,77.2,49.6,30.12,NNE,33,12.7,12.7,38,0.00,OVC,,0.00,162.0,WeatherDisplay:10.37,2013-05-12 00:27:00,
2013-05-11 19:32:00,76.9,49.4,30.13,NE,49,11.5,11.5,38,0.00,OVC,,0.00,145.0,WeatherDisplay:10.37,2013-05-12 00:32:00,
2013-05-11 19:37:00,76.7,49.2,30.14,NE,46,15.0,15.0,38,0.00,OVC,,0.00,127.0,WeatherDisplay:10.37,2013-05-12 00:37:00,
2013-05-11 19:42:00,76.5,49.0,30.14,NNE,26,11.5,11.5,38,0.00,OVC,,0.00,109.0,WeatherDisplay:10.37,2013-05-12 00:42:00,
2013-05-11 19:47:00,76.4,49.6,30.15,NE,43,10.8,10.8,39,0.00,OVC,,0.00,91.0,WeatherDisplay:10.37,2013-05-12 00:47:00,
2013-05-11 19:52:00,76.2,50.1,30.15,NE,40,9.2,9.2,40,0.00,OVC,,0.00,71.0,WeatherDisplay:10.37,2013-05-12 00:52:00,
2013-05-11 19:58:00,75.9,50.5,30.15,NE,40,6.9,6.9,41,0.00,OVC,,0.00,50.0,WeatherDisplay:10.37,2013-05-12 00:58:00,
2013-05-11 20:03:00,75.5,50.1,30.16,NE,53,6.9,6.9,41,0.00,OVC,,0.00,33.0,WeatherDisplay:10.37,2013-05-12 01:03:00,
2013-05-11 20:08:00,75.3,50.6,30.16,NE,40,9.0,9.0,42,0.00,OVC,,0.00,18.0,WeatherDisplay:10.37,2013-05-12 01:08:00,
2013-05-11 20:13:00,74.8,50.8,30.16,NNE,22,6.9,6.9,43,0.00,OVC,,0.00,9.0,WeatherDisplay:10.37,2013-05-12 01:13:00,
2013-05-11 20:18:00,74.3,50.4,30.16,NE,46,8.1,8.1,43,0.00,OVC,,0.00,6.0,WeatherDisplay:10.37,2013-05-12 01:18:00,
2013-05-11 20:23:00,74.0,50.7,30.16,ENE,64,8.1,8.1,44,0.00,OVC,,0.00,3.0,WeatherDisplay:10.37,2013-05-12 01:23:00,
2013-05-11 20:28:00,73.8,50.5,30.16,NE,47,8.1,8.1,44,0.00,OVC,,0.00,2.0,WeatherDisplay:10.37,2013-05-12 01:28:00,
2013-05-11 20:34:00,73.5,50.9,30.16,NE,53,8.1,8.1,45,0.00,OVC,,0.00,2.0,WeatherDisplay:10.37,2013-05-12 01:34:00,
2013-05-11 20:39:00,73.2,50.6,30.16,NNE,30,9.2,9.2,45,0.00,OVC,,0.00,1.0,WeatherDisplay:10.37,2013-05-12 01:39:00,
2013-05-11 20:44:00,73.0,51.0,30.16,NNE,30,8.1,8.1,46,0.00,OVC,,0.00,1.0,WeatherDisplay:10.37,2013-05-12 01:44:00,
2013-05-11 20:49:00,72.8,50.8,30.16,NE,44,8.1,8.1,46,0.00,CLR,,0.00,1.0,WeatherDisplay:10.37,2013-05-12 01:49:00,
2013-05-11 20:55:00,72.5,50.5,30.17,NE,44,8.1,8.1,46,0.00,CLR,,0.00,1.0,WeatherDisplay:10.37,2013-05-12 01:55:00,
2013-05-11 21:00:00,72.3,51.0,30.17,NE,44,6.0,8.0,47,0.00,CLR,,0.00,0.0,WeatherDisplay:10.37,2013-05-12 02:00:00,
2013-05-11 21:05:00,72.1,50.8,30.17,NE,45,6.0,8.0,47,0.00,CLR,,0.00,0.0,WeatherDisplay:10.37,2013-05-12 02:05:00,
2013-05-11 21:10:00,71.9,50.6,30.17,NE,49,6.0,8.0,47,0.00,CLR,,0.00,0.0,WeatherDisplay:10.37,2013-05-12 02:10:00,
2013-05-11 21:15:00,71.8,51.0,30.17,NE,52,5.0,6.0,48,0.00,CLR,,0.00,0.0,WeatherDisplay:10.37,2013-05-12 02:15:00,
2013-05-11 21:20:00,71.6,50.9,30.17,NE,53,5.0,6.0,48,0.00,CLR,,0.00,0.0,WeatherDisplay:10.37,2013-05-12 02:20:00,
2013-05-11 21:25:00,71.4,50.7,30.17,ENE,58,5.8,5.8,48,0.00,CLR,,0.00,1.0,WeatherDisplay:10.37,2013-05-12 02:25:00,
2013-05-11 21:30:00,71.3,50.6,30.18,NE,56,5.0,6.0,48,0.00,CLR,,0.00,0.0,WeatherDisplay:10.37,2013-05-12 02:30:00,
2013-05-11 21:35:00,71.1,50.9,30.18,NE,52,5.0,5.0,49,0.00,CLR,,0.00,0.0,WeatherDisplay:10.37,2013-05-12 02:35:00,
2013-05-11 21:40:00,70.9,50.8,30.18,NE,47,5.0,6.0,49,0.00,CLR,,0.00,0.0,WeatherDisplay:10.37,2013-05-12 02:40:00,
2013-05-11 21:45:00,70.8,50.7,30.18,NE,42,5.0,6.0,49,0.00,CLR,,0.00,0.0,WeatherDisplay:10.37,2013-05-12 02:45:00,
2013-05-11 21:50:00,70.7,51.1,30.18,NE,41,5.0,6.0,50,0.00,CLR,,0.00,0.0,WeatherDisplay:10.37,2013-05-12 02:50:00,
2013-05-11 21:55:00,70.6,51.1,30.18,NE,41,5.8,5.8,50,0.00,CLR,,0.00,1.0,WeatherDisplay:10.37,2013-05-12 02:55:00,
2013-05-11 22:00:00,70.5,50.9,30.18,NE,39,6.0,7.0,50,0.00,CLR,,0.00,0.0,WeatherDisplay:10.37,2013-05-12 03:00:00,
2013-05-11 22:05:00,70.4,50.9,30.18,NNE,33,5.8,5.8,50,0.00,CLR,,0.00,1.0,WeatherDisplay:10.37,2013-05-12 03:05:00,
2013-05-11 22:10:00,70.3,51.3,30.19,NNE,26,5.0,6.0,51,0.00,CLR,,0.00,0.0,WeatherDisplay:10.37,2013-05-12 03:10:00,
2013-05-11 22:15:00,70.1,51.7,30.19,NNE,23,6.0,7.0,52,0.00,CLR,,0.00,0.0,WeatherDisplay:10.37,2013-05-12 03:15:00,
2013-05-11 22:20:00,69.9,51.5,30.19,NNE,23,6.0,6.0,52,0.00,CLR,,0.00,0.0,WeatherDisplay:10.37,2013-05-12 03:20:00,
2013-05-11 22:25:00,69.8,51.4,30.19,NNE,24,5.0,6.0,52,0.00,CLR,,0.00,0.0,WeatherDisplay:10.37,2013-05-12 03:25:00,
2013-05-11 22:30:00,69.7,51.3,30.19,NNE,28,5.0,6.0,52,0.00,CLR,,0.00,0.0,WeatherDisplay:10.37,2013-05-12 03:30:00,
2013-05-11 22:35:00,69.6,51.2,30.19,NNE,28,6.0,6.0,52,0.00,CLR,,0.00,0.0,WeatherDisplay:10.37,2013-05-12 03:35:00,
2013-05-11 22:40:00,69.6,50.7,30.19,NNE,27,5.0,6.0,51,0.00,CLR,,0.00,0.0,WeatherDisplay:10.37,2013-05-12 03:40:00,
2013-05-11 22:45:00,69.7,50.7,30.20,NNE,24,6.0,7.0,51,0.00,CLR,,0.00,0.0,WeatherDisplay:10.37,2013-05-12 03:45:00,
2013-05-11 22:50:00,69.7,50.7,30.20,NNE,24,7.0,8.0,51,0.00,CLR,,0.00,0.0,WeatherDisplay:10.37,2013-05-12 03:50:00,
2013-05-11 22:55:00,69.7,51.3,30.20,NNE,25,7.0,10.0,52,0.00,CLR,,0.00,0.0,WeatherDisplay:10.37,2013-05-12 03:55:00,
2013-05-11 23:00:00,69.8,51.4,30.20,NNE,25,8.0,10.0,52,0.00,CLR,,0.00,0.0,WeatherDisplay:10.37,2013-05-12 04:00:00,
2013-05-11 23:01:00,69.8,51.4,30.20,NNE,27,9.2,9.2,52,0.00,CLR,,0.00,1.0,WeatherDisplay:10.37,2013-05-12 04:01:00,
2013-05-11 23:02:00,69.7,51.3,30.20,NNE,26,10.4,10.4,52,0.00,CLR,,0.00,1.0,WeatherDisplay:10.37,2013-05-12 04:02:00,
2013-05-11 23:06:00,69.6,51.7,30.21,NNE,25,11.5,11.5,53,0.00,CLR,,0.00,1.0,WeatherDisplay:10.37,2013-05-12 04:06:00,
2013-05-11 23:11:00,69.4,51.5,30.21,NE,51,11.5,11.5,53,0.00,CLR,,0.00,1.0,WeatherDisplay:10.37,2013-05-12 04:11:00,
2013-05-11 23:16:00,69.3,51.9,30.21,NE,37,13.8,13.8,54,0.00,CLR,,0.00,1.0,WeatherDisplay:10.37,2013-05-12 04:16:00,
2013-05-11 23:22:00,69.3,51.9,30.21,ENE,59,11.5,11.5,54,0.00,CLR,,0.00,1.0,WeatherDisplay:10.37,2013-05-12 04:22:00,
2013-05-11 23:27:00,69.1,52.2,30.21,NE,38,10.4,10.4,55,0.00,CLR,,0.00,1.0,WeatherDisplay:10.37,2013-05-12 04:27:00,
2013-05-11 23:32:00,68.9,52.6,30.21,NE,42,9.2,9.2,56,0.00,CLR,,0.00,1.0,WeatherDisplay:10.37,2013-05-12 04:32:00,
2013-05-11 23:37:00,68.7,52.4,30.21,NNE,24,9.2,9.2,56,0.00,CLR,,0.00,1.0,WeatherDisplay:10.37,2013-05-12 04:37:00,
2013-05-11 23:42:00,68.4,52.6,30.21,North,11,8.1,8.1,57,0.00,CLR,,0.00,1.0,WeatherDisplay:10.37,2013-05-12 04:42:00,
2013-05-11 23:47:00,68.0,52.7,30.21,NE,34,11.5,11.5,58,0.00,CLR,,0.00,1.0,WeatherDisplay:10.37,2013-05-12 04:47:00,
2013-05-11 23:52:00,67.7,52.9,30.21,NE,37,11.5,11.5,59,0.00,CLR,,0.00,1.0,WeatherDisplay:10.37,2013-05-12 04:52:00,
2013-05-11 23:58:00,67.4,53.0,30.21,North,10,11.5,11.5,60,0.00,CLR,,0.00,1.0,WeatherDisplay:10.37,2013-05-12 04:58:00,